Augusta, ME

2:13 PM EST on February 10, 2016 (GMT -0500)
Augusta State

Weather History for KAUG - January, 2013

Change the Weather History Date:

Sunday, January 20, 2013

  Actual Average Record
Temperature  
Mean Temperature 32 °F 19 °F  
Max Temperature 42 °F 27 °F 46 °F (2006)
Min Temperature 19 °F 10 °F -2 °F (2000)
Degree Days  
Heating Degree Days 34 46  
Month to date heating degree days 911  
Since 1 July heating degree days 3666  
Cooling Degree Days 0 0  
Month to date cooling degree days 0  
Year to date cooling degree days 0  
Moisture  
Dew Point 20 °F    
Average Humidity 61    
Maximum Humidity 89    
Minimum Humidity 36    
Precipitation  
Precipitation 0.01 in 0.09 in 0.14 in (1998)
Month to date precipitation 1.68  
Year to date precipitation 1.68  
Sea Level Pressure  
Sea Level Pressure 29.63 in    
Wind  
Wind Speed 6 mph (WSW)    
Max Wind Speed 20 mph    
Max Gust Speed 34 mph    
Visibility 10 miles    
Events      
T = Trace of Precipitation, MM = Missing Value Source: NWS Daily Summary

Daily Weather History Graph

Daily Weather History Graph

Search for Another Location

Airport or City:

Trip Planner

Search our weather history database for the weather conditions in past years. The results will help you decide how hot, cold, wet, or windy it might be!

Date:

Astronomy

Jan. 20, 2013 Rise Set
Actual Time 7:08 AM EST 4:32 PM EST
Civil Twilight 6:36 AM EST 5:04 PM EST
Nautical Twilight 6:00 AM EST 5:40 PM EST
Astronomical Twilight 5:26 AM EST 6:14 PM EST
Moon 11:32 AM EST (1/20) 1:36 AM EST (1/20)
Length of Visible Light 10h 28m
Length of Day
9h 24m
Waxing Gibbous, 66% of the Moon is Illuminated
Jan 20
Waxing Gibbous
Jan 26
Full
Feb 3
Last Quarter
Feb 10
New
Feb 17
First Quarter

Hourly Weather History & Observations

Time (EST) Temp. Windchill Dew Point Humidity Pressure Visibility Wind Dir Wind Speed Gust Speed Precip Events Conditions
12:53 AM 28.9 °F - 21.9 °F 75% 29.83 in 10.0 mi Calm Calm - N/A   Overcast
1:53 AM 30.0 °F - 23.0 °F 75% 29.82 in 10.0 mi Calm Calm - N/A   Overcast
2:53 AM 28.0 °F 22.8 °F 23.0 °F 81% 29.78 in 10.0 mi North 4.6 mph - N/A   Overcast
3:53 AM 28.0 °F 24.2 °F 23.0 °F 81% 29.74 in 9.0 mi SSE 3.5 mph - 0.00 in   Overcast
4:53 AM 28.0 °F - 24.1 °F 85% 29.70 in 10.0 mi Calm Calm - 0.01 in   Overcast
5:53 AM 28.0 °F - 25.0 °F 88% 29.65 in 10.0 mi Calm Calm - N/A   Overcast
6:53 AM 30.9 °F 25.2 °F 28.0 °F 89% 29.59 in 10.0 mi South 5.8 mph - N/A   Partly Cloudy
7:53 AM 33.1 °F 26.9 °F 28.9 °F 85% 29.55 in 10.0 mi South 6.9 mph - N/A   Clear
8:53 AM 37.0 °F 31.0 °F 30.9 °F 79% 29.52 in 10.0 mi SSW 8.1 mph 17.3 mph N/A   Clear
9:53 AM 41.0 °F 33.9 °F 30.0 °F 65% 29.49 in 10.0 mi SSW 12.7 mph 21.9 mph N/A   Clear
10:53 AM 42.1 °F 35.7 °F 28.0 °F 58% 29.46 in 10.0 mi SW 11.5 mph 20.7 mph N/A   Clear
11:53 AM 42.1 °F 35.2 °F 27.0 °F 55% 29.42 in 10.0 mi SSW 12.7 mph 26.5 mph N/A   Clear
12:53 PM 42.1 °F 35.7 °F 27.0 °F 55% 29.45 in 10.0 mi West 11.5 mph 18.4 mph N/A   Mostly Cloudy
1:53 PM 42.1 °F 36.6 °F 26.1 °F 53% 29.44 in 10.0 mi SW 9.2 mph 21.9 mph N/A   Clear
2:53 PM 39.9 °F 32.5 °F 28.0 °F 63% 29.49 in 10.0 mi WNW 12.7 mph 19.6 mph N/A   Scattered Clouds
3:53 PM 41.0 °F 31.9 °F 16.0 °F 36% 29.51 in 10.0 mi West 19.6 mph 34.5 mph N/A   Clear
4:53 PM 39.0 °F 30.3 °F 14.0 °F 36% 29.55 in 10.0 mi West 16.1 mph 25.3 mph N/A   Clear
5:53 PM 36.0 °F 27.1 °F 12.0 °F 37% 29.61 in 10.0 mi West 13.8 mph 25.3 mph N/A   Clear
6:53 PM 33.1 °F 24.9 °F 14.0 °F 46% 29.65 in 10.0 mi WNW 10.4 mph 20.7 mph N/A   Clear
7:53 PM 30.9 °F 21.7 °F 8.1 °F 38% 29.68 in 10.0 mi West 11.5 mph 27.6 mph N/A   Clear
8:53 PM 28.9 °F 18.6 °F 8.1 °F 41% 29.73 in 10.0 mi West 12.7 mph 28.8 mph N/A   Mostly Cloudy
9:53 PM 25.0 °F 11.7 °F 8.1 °F 49% 29.78 in 10.0 mi WNW 17.3 mph 27.6 mph N/A   Scattered Clouds
10:53 PM 21.9 °F 11.0 °F 6.1 °F 51% 29.81 in 10.0 mi NW 10.4 mph 17.3 mph N/A   Partly Cloudy
11:53 PM 19.0 °F 4.5 °F 3.9 °F 52% 29.83 in 10.0 mi WNW 16.1 mph 20.7 mph N/A   Clear